Weather History for KBLM - March, 2012

Change the Weather History Date:

Saturday, March 3, 2012

  Actual Average Record
Temperature  
Mean Temperature 50 °F -  
Max Temperature 55 °F 43 °F 60 °F (2002)
Min Temperature 44 °F 29 °F 10 °F (2009)
Degree Days  
Heating Degree Days 16    
Moisture  
Dew Point 41 °F    
Average Humidity 72    
Maximum Humidity 100    
Minimum Humidity 33    
Precipitation  
Precipitation 0.19 in - - ()
Sea Level Pressure  
Sea Level Pressure 29.57 in    
Wind  
Wind Speed 11 mph (SW)    
Max Wind Speed 20 mph    
Max Gust Speed 30 mph    
Visibility 8 miles    
Events      
Averages and records for this station are not official NWS values.
T = Trace of Precipitation, MM = Missing Value Source: NWS Daily Summary

Daily Weather History Graph

Daily Weather History Graph

Search for Another Location

Airport or City:

Trip Planner

Search our weather history database for the weather conditions in past years. The results will help you decide how hot, cold, wet, or windy it might be!

Date:

Astronomy

Mar. 03, 2012 Rise Set
Actual Time 6:26 AM EST 5:50 PM EST
Civil Twilight 5:59 AM EST 6:18 PM EST
Nautical Twilight 5:27 AM EST 6:49 PM EST
Astronomical Twilight 4:56 AM EST 7:21 PM EST
Moon 12:58 PM EST (3/3) 3:01 AM EST (3/3)
Length of Visible Light 12h 19m
Length of Day
11h 24m
Waxing Gibbous, 75% of the Moon is Illuminated
Mar 3
Waxing Gibbous
Mar 8
Full
Mar 14
Last Quarter
Mar 22
New
Mar 30
First Quarter

Hourly Weather History & Observations

Time (EST) Temp. Windchill Dew Point Humidity Pressure Visibility Wind Dir Wind Speed Gust Speed Precip Events Conditions
12:15 AM 44.6 °F 38.4 °F 42.8 °F 93% 29.76 in 9.0 mi SE 12.7 mph 19.6 mph N/A   Overcast
12:35 AM 44.6 °F 41.4 °F 42.8 °F 93% 29.75 in 10.0 mi SSE 5.8 mph - N/A   Overcast
12:55 AM 46.4 °F 41.1 °F 42.8 °F 87% 29.73 in 10.0 mi SE 11.5 mph 18.4 mph N/A   Overcast
1:15 AM 46.4 °F 41.5 °F 44.6 °F 93% 29.70 in 6.0 mi SSE 10.4 mph - N/A   Overcast
1:35 AM 46.4 °F 42.4 °F 46.4 °F 100% 29.70 in 10.0 mi South 8.1 mph 18.4 mph N/A   Overcast
1:55 AM 48.2 °F - 46.4 °F 93% 29.68 in 7.0 mi SE 12.7 mph 20.7 mph N/A   Overcast
2:15 AM 48.2 °F - 46.4 °F 93% 29.69 in 5.0 mi SSE 9.2 mph - 0.04 in   Overcast
2:35 AM 48.2 °F - 46.4 °F 93% 29.64 in 9.0 mi SSE 12.7 mph 19.6 mph 0.13 in   Overcast
2:55 AM 48.2 °F - 46.4 °F 93% 29.58 in 10.0 mi SSE 17.3 mph 23.0 mph 0.19 in   Overcast
3:15 AM 48.2 °F - 48.2 °F 100% 29.57 in 10.0 mi SSE 17.3 mph 21.9 mph N/A   Overcast
3:35 AM 48.2 °F - 48.2 °F 100% 29.59 in 4.0 mi SSE 15.0 mph 21.9 mph N/A   Overcast
3:55 AM 50.0 °F - 48.2 °F 94% 29.57 in 8.0 mi SSE 10.4 mph 19.6 mph N/A   Overcast
4:15 AM 51.8 °F - 50.0 °F 94% 29.57 in 7.0 mi South 9.2 mph 16.1 mph N/A   Overcast
4:35 AM 51.8 °F - 50.0 °F 94% 29.58 in 5.0 mi South 10.4 mph 21.9 mph N/A   Overcast
4:55 AM 51.8 °F - 50.0 °F 94% 29.55 in 1.2 mi South 4.6 mph - N/A   Overcast
5:15 AM 51.8 °F - 48.2 °F 88% 29.52 in 0.5 mi SSE 5.8 mph - N/A   Overcast
5:35 AM 51.8 °F - 50.0 °F 94% 29.51 in 0.8 mi South 4.6 mph - N/A   Overcast
5:55 AM 51.8 °F - 50.0 °F 94% 29.52 in 1.8 mi South 8.1 mph - N/A   Overcast
6:15 AM 51.8 °F - 50.0 °F 94% 29.52 in 6.0 mi SSW 4.6 mph - N/A   Overcast
6:35 AM 51.8 °F - 50.0 °F 94% 29.52 in 7.0 mi SW 3.5 mph - N/A   Overcast
7:15 AM 51.8 °F - 51.8 °F 100% 29.49 in 5.0 mi Calm Calm - N/A   Overcast
7:35 AM 51.8 °F - 51.8 °F 100% 29.50 in 5.0 mi SW 4.6 mph - N/A   Overcast
7:55 AM 53.6 °F - 51.8 °F 94% 29.51 in 5.0 mi SW 5.8 mph - N/A   Overcast
8:15 AM 53.6 °F - 51.8 °F 94% 29.51 in 1.5 mi SW 8.1 mph - N/A   Overcast
8:35 AM 53.6 °F - 53.6 °F 100% 29.52 in 1.0 mi SW 6.9 mph - N/A   Overcast
8:55 AM 53.6 °F - 53.6 °F 100% 29.53 in 2.5 mi WSW 12.7 mph - N/A   Overcast
9:15 AM 53.6 °F - 53.6 °F 100% 29.52 in 4.0 mi WSW 9.2 mph - N/A   Overcast
9:35 AM 53.6 °F - 53.6 °F 100% 29.52 in 8.0 mi WSW 11.5 mph 18.4 mph N/A   Overcast
9:55 AM 53.6 °F - 51.8 °F 94% 29.53 in 10.0 mi West 13.8 mph 21.9 mph N/A   Overcast
10:15 AM 53.6 °F - 51.8 °F 94% 29.53 in 10.0 mi West 11.5 mph 20.7 mph N/A   Overcast
10:35 AM 51.8 °F - 50.0 °F 94% 29.53 in 10.0 mi WSW 10.4 mph 16.1 mph N/A   Overcast
10:55 AM 51.8 °F - 50.0 °F 94% 29.53 in 10.0 mi West 15.0 mph - N/A   Overcast
11:15 AM 51.8 °F - 48.2 °F 88% 29.53 in 10.0 mi West 15.0 mph 23.0 mph N/A   Overcast
11:35 AM 51.8 °F - 48.2 °F 88% 29.53 in 10.0 mi West 10.4 mph - N/A   Overcast
11:55 AM 51.8 °F - 46.4 °F 82% 29.52 in 10.0 mi West 12.7 mph 19.6 mph N/A   Mostly Cloudy
12:15 PM 51.8 °F - 44.6 °F 76% 29.52 in 10.0 mi West 13.8 mph 23.0 mph N/A   Scattered Clouds
12:35 PM 51.8 °F - 44.6 °F 76% 29.51 in 10.0 mi West 13.8 mph 18.4 mph N/A   Scattered Clouds
12:55 PM 53.6 °F - 44.6 °F 72% 29.51 in 10.0 mi West 11.5 mph 19.6 mph N/A   Partly Cloudy
1:15 PM 53.6 °F - 39.2 °F 58% 29.50 in 10.0 mi West 12.7 mph 17.3 mph N/A   Clear
1:35 PM 53.6 °F - 39.2 °F 58% 29.50 in 10.0 mi West 17.3 mph 26.5 mph N/A   Clear
1:55 PM 53.6 °F - 39.2 °F 58% 29.51 in 10.0 mi West 17.3 mph 25.3 mph N/A   Clear
2:15 PM 53.6 °F - 37.4 °F 54% 29.52 in 10.0 mi West 17.3 mph 20.7 mph N/A   Clear
2:35 PM 53.6 °F - 37.4 °F 54% 29.52 in 10.0 mi West 19.6 mph 23.0 mph N/A   Clear
2:55 PM 55.4 °F - 32.0 °F 41% 29.51 in 10.0 mi West 15.0 mph 25.3 mph N/A   Clear
3:15 PM 55.4 °F - 33.8 °F 44% 29.52 in 10.0 mi West 15.0 mph 23.0 mph N/A   Clear
3:35 PM 55.4 °F - 28.4 °F 36% 29.53 in 10.0 mi WSW 13.8 mph 24.2 mph N/A   Clear
3:55 PM 55.4 °F - 33.8 °F 44% 29.53 in 10.0 mi West 18.4 mph 24.2 mph N/A   Clear
4:15 PM 55.4 °F - 30.2 °F 38% 29.53 in 10.0 mi West 15.0 mph 25.3 mph N/A   Clear
4:35 PM 55.4 °F - 30.2 °F 38% 29.53 in 10.0 mi WSW 19.6 mph 29.9 mph N/A   Clear
4:55 PM 55.4 °F - 26.6 °F 33% 29.54 in 10.0 mi West 15.0 mph 25.3 mph N/A   Clear
5:15 PM 53.6 °F - 26.6 °F 35% 29.56 in 10.0 mi West 10.4 mph 21.9 mph N/A   Clear
5:35 PM 53.6 °F - 26.6 °F 35% 29.57 in 10.0 mi WSW 8.1 mph 18.4 mph N/A   Clear
5:55 PM 53.6 °F - 26.6 °F 35% 29.59 in 10.0 mi WSW 11.5 mph - N/A   Clear
6:15 PM 53.6 °F - 26.6 °F 35% 29.60 in 10.0 mi WSW 9.2 mph - N/A   Clear
6:35 PM 51.8 °F - 26.6 °F 38% 29.61 in 10.0 mi WSW 9.2 mph - N/A   Clear
6:55 PM 51.8 °F - 26.6 °F 38% 29.62 in 10.0 mi WSW 8.1 mph - N/A   Clear
7:15 PM 51.8 °F - 28.4 °F 41% 29.62 in 10.0 mi SW 6.9 mph - N/A   Clear
7:35 PM 50.0 °F - 28.4 °F 43% 29.62 in 10.0 mi WSW 5.8 mph - N/A   Clear
7:55 PM 48.2 °F - 28.4 °F 46% 29.62 in 10.0 mi WSW 6.9 mph - N/A   Clear
8:15 PM 48.2 °F - 28.4 °F 46% 29.65 in 10.0 mi SW 5.8 mph - N/A   Clear
8:35 PM 48.2 °F - 26.6 °F 43% 29.64 in 10.0 mi WSW 5.8 mph - N/A   Clear
8:55 PM 46.4 °F 41.9 °F 24.8 °F 43% 29.65 in 10.0 mi WNW 9.2 mph - N/A   Clear
9:15 PM 48.2 °F - 21.2 °F 34% 29.66 in 10.0 mi WNW 11.5 mph - N/A   Clear
9:35 PM 48.2 °F - 21.2 °F 34% 29.66 in 10.0 mi WNW 12.7 mph 20.7 mph N/A   Clear
9:55 PM 48.2 °F - 21.2 °F 34% 29.65 in 10.0 mi WNW 18.4 mph 23.0 mph N/A   Clear
10:15 PM 48.2 °F - 21.2 °F 34% 29.65 in 10.0 mi NW 17.3 mph 21.9 mph N/A   Clear
10:35 PM 46.4 °F 40.1 °F 23.0 °F 40% 29.66 in 10.0 mi NW 15.0 mph 20.7 mph N/A   Clear
10:55 PM 46.4 °F 41.1 °F 23.0 °F 40% 29.66 in 10.0 mi WNW 11.5 mph 17.3 mph N/A   Clear
11:15 PM 46.4 °F 40.7 °F 23.0 °F 40% 29.67 in 10.0 mi WNW 12.7 mph 18.4 mph N/A   Clear
11:35 PM 44.6 °F 42.2 °F 23.0 °F 43% 29.68 in 10.0 mi West 4.6 mph - N/A   Clear
11:55 PM 44.6 °F 41.4 °F 21.2 °F 39% 29.70 in 10.0 mi SW 5.8 mph - N/A   Clear